Tracking 22081 objects as of 4-Dec-2020
HD Live streaming from Space Station
objects crossing your sky now

SL-12 DEB

Track SL-12 DEB now!
10-day predictions


NORAD ID: 29328
Int'l Code: 1989-039AK
Perigee: 464.0 km
Apogee: 18,830.3 km
Inclination: 64.7 °
Period: 336.3 minutes
Semi major axis: 16018 km
RCS: 0.0222 m2 (small)
Launch date: May 31, 1989
Source: Commonwealth of Independent States (former USSR) (CIS)
Launch site: TYURATAM MISSILE AND SPACE COMPLEX (TTMTR)

Note: This is SATELLITE DEBRIS
aabbcc
Your satellite tracking list
Your tracking list is empty




NASA's NSSDC Master Catalog

Two Line Element Set (TLE):
1 29328U 89039AK  20338.05084897  .00000263  00000-0  37282-3 0  9996
2 29328  64.7173 203.6069 5732974 188.3681 351.0649  4.28238612224251
Source of the keplerian elements: AFSPC